Time,TemperatureF,DewpointF,PressureIn,WindDirection,WindDirectionDegrees,WindSpeedMPH,WindSpeedGustMPH,Humidity,HourlyPrecipIn,Conditions,Clouds,dailyrainin,SolarRadiationWatts/m^2,SoftwareType,DateUTC
2013-04-15 00:09:00,57.6,40.6,30.09,SE,144,0.0,0.0,53,0.00,,,0.00,0,Wunderground v.1.15,2013-04-15 04:09:00,
2013-04-15 00:20:00,57.8,40.8,30.09,SE,144,0.0,0.0,53,0.00,,,0.00,0,Wunderground v.1.15,2013-04-15 04:20:00,
2013-04-15 00:30:00,57.8,40.8,30.09,SE,141,0.0,0.0,53,0.00,,,0.00,0,Wunderground v.1.15,2013-04-15 04:30:00,
2013-04-15 00:40:00,57.7,41.2,30.09,SE,141,0.0,0.0,54,0.00,,,0.00,0,Wunderground v.1.15,2013-04-15 04:40:00,
2013-04-15 00:50:00,58.0,41.9,30.09,SE,142,0.0,0.0,55,0.00,,,0.00,0,Wunderground v.1.15,2013-04-15 04:50:00,
2013-04-15 01:00:00,58.4,42.8,30.09,SE,142,0.0,1.0,56,0.00,,,0.00,0,Wunderground v.1.15,2013-04-15 05:00:00,
2013-04-15 01:10:00,58.4,43.7,30.09,SSE,155,1.0,1.0,58,0.00,,,0.00,0,Wunderground v.1.15,2013-04-15 05:10:00,
2013-04-15 01:20:00,58.4,44.1,30.09,SSE,166,0.0,0.0,59,0.00,,,0.00,0,Wunderground v.1.15,2013-04-15 05:20:00,
2013-04-15 01:29:00,58.3,44.0,30.10,SSE,154,1.0,1.0,59,0.00,,,0.00,0,Wunderground v.1.15,2013-04-15 05:29:00,
2013-04-15 01:40:00,58.3,43.6,30.10,SE,145,1.0,1.0,58,0.00,,,0.00,0,Wunderground v.1.15,2013-04-15 05:40:00,
2013-04-15 01:50:00,58.5,43.8,30.10,SE,143,1.0,1.0,58,0.00,,,0.00,0,Wunderground v.1.15,2013-04-15 05:50:00,
2013-04-15 01:59:00,58.5,43.8,30.10,SE,132,1.0,4.0,58,0.00,,,0.00,0,Wunderground v.1.15,2013-04-15 05:59:00,
2013-04-15 02:09:00,58.5,43.8,30.10,SE,127,2.0,2.0,58,0.00,,,0.00,0,Wunderground v.1.15,2013-04-15 06:09:00,
2013-04-15 02:20:00,58.3,44.0,30.10,SE,144,1.0,1.0,59,0.00,,,0.00,0,Wunderground v.1.15,2013-04-15 06:20:00,
2013-04-15 02:30:00,58.2,43.9,30.09,SE,140,0.0,0.0,59,0.00,,,0.00,0,Wunderground v.1.15,2013-04-15 06:30:00,
2013-04-15 02:39:00,57.9,44.1,30.09,ESE,120,1.0,2.0,60,0.00,,,0.00,0,Wunderground v.1.15,2013-04-15 06:39:00,
2013-04-15 02:50:00,57.7,43.9,30.09,ESE,121,0.0,0.0,60,0.00,,,0.00,0,Wunderground v.1.15,2013-04-15 06:50:00,
2013-04-15 03:00:00,57.2,44.3,30.09,ESE,121,0.0,0.0,62,0.00,,,0.00,0,Wunderground v.1.15,2013-04-15 07:00:00,
2013-04-15 03:50:00,57.3,44.4,30.11,ESE,120,1.0,1.0,62,0.00,,,0.00,0,Wunderground v.1.15,2013-04-15 07:50:00,
2013-04-15 03:59:00,57.3,44.4,30.11,SE,142,1.0,1.0,62,0.00,,,0.00,0,Wunderground v.1.15,2013-04-15 07:59:00,
2013-04-15 04:09:00,57.1,45.0,30.12,SE,128,2.0,2.0,64,0.00,,,0.00,0,Wunderground v.1.15,2013-04-15 08:09:00,
2013-04-15 04:19:00,56.8,45.2,30.12,SE,130,1.0,1.0,65,0.00,,,0.00,0,Wunderground v.1.15,2013-04-15 08:19:00,
2013-04-15 04:40:00,56.6,45.0,30.11,ESE,121,3.0,3.0,65,0.00,,,0.00,0,Wunderground v.1.15,2013-04-15 08:40:00,
2013-04-15 04:50:00,56.8,44.3,30.11,SE,138,3.0,6.0,63,0.00,,,0.00,0,Wunderground v.1.15,2013-04-15 08:50:00,
2013-04-15 05:00:00,56.9,44.8,30.11,SE,132,4.0,4.0,64,0.00,,,0.00,0,Wunderground v.1.15,2013-04-15 09:00:00,
2013-04-15 05:10:00,56.7,44.2,30.12,SSE,165,3.0,3.0,63,0.00,,,0.00,0,Wunderground v.1.15,2013-04-15 09:10:00,
2013-04-15 05:20:00,56.6,44.1,30.12,SSE,147,2.0,5.0,63,0.00,,,0.00,0,Wunderground v.1.15,2013-04-15 09:20:00,
2013-04-15 05:29:00,56.5,44.0,30.12,ESE,112,3.0,5.0,63,0.00,,,0.00,0,Wunderground v.1.15,2013-04-15 09:29:00,
2013-04-15 05:40:00,56.4,44.4,30.12,SE,142,2.0,2.0,64,0.00,,,0.00,0,Wunderground v.1.15,2013-04-15 09:40:00,
2013-04-15 05:49:00,56.3,43.9,30.13,SE,130,2.0,2.0,63,0.00,,,0.00,0,Wunderground v.1.15,2013-04-15 09:49:00,
2013-04-15 06:00:00,56.4,44.0,30.13,SE,126,1.0,2.0,63,0.00,,,0.00,0,Wunderground v.1.15,2013-04-15 10:00:00,
2013-04-15 06:09:00,56.1,44.1,30.14,SE,133,1.0,4.0,64,0.00,,,0.00,0,Wunderground v.1.15,2013-04-15 10:09:00,
2013-04-15 06:20:00,55.8,44.2,30.14,SSE,155,1.0,1.0,65,0.00,,,0.00,0,Wunderground v.1.15,2013-04-15 10:20:00,
2013-04-15 06:29:00,55.5,44.3,30.15,SSE,148,2.0,2.0,66,0.00,,,0.00,0,Wunderground v.1.15,2013-04-15 10:29:00,
2013-04-15 06:39:00,55.4,44.6,30.15,SE,134,1.0,3.0,67,0.00,,,0.00,0,Wunderground v.1.15,2013-04-15 10:39:00,
2013-04-15 06:50:00,55.3,44.5,30.15,SSE,155,1.0,1.0,67,0.00,,,0.00,5,Wunderground v.1.15,2013-04-15 10:50:00,
2013-04-15 06:59:00,55.2,44.8,30.16,SSE,153,2.0,2.0,68,0.00,,,0.00,11,Wunderground v.1.15,2013-04-15 10:59:00,
2013-04-15 07:10:00,55.0,45.0,30.16,SE,143,1.0,1.0,69,0.00,,,0.00,26,Wunderground v.1.15,2013-04-15 11:10:00,
2013-04-15 07:19:00,55.0,45.4,30.17,SE,142,1.0,1.0,70,0.00,,,0.00,25,Wunderground v.1.15,2013-04-15 11:19:00,
2013-04-15 07:29:00,54.9,45.3,30.17,SE,142,1.0,1.0,70,0.00,,,0.00,18,Wunderground v.1.15,2013-04-15 11:29:00,
2013-04-15 07:40:00,54.7,45.1,30.17,SE,141,1.0,3.0,70,0.00,,,0.00,25,Wunderground v.1.15,2013-04-15 11:40:00,
2013-04-15 07:49:00,55.0,45.8,30.17,SE,145,1.0,2.0,71,0.00,,,0.00,69,Wunderground v.1.15,2013-04-15 11:49:00,
2013-04-15 08:00:00,55.2,46.0,30.17,SE,126,1.0,1.0,71,0.00,,,0.00,67,Wunderground v.1.15,2013-04-15 12:00:00,
2013-04-15 08:09:00,55.3,45.7,30.17,ESE,106,1.0,2.0,70,0.00,,,0.00,88,Wunderground v.1.15,2013-04-15 12:09:00,
2013-04-15 08:20:00,55.7,46.4,30.17,ESE,107,1.0,4.0,71,0.00,,,0.00,144,Wunderground v.1.15,2013-04-15 12:20:00,
2013-04-15 08:29:00,56.2,46.2,30.17,SE,135,2.0,2.0,69,0.00,,,0.00,121,Wunderground v.1.15,2013-04-15 12:29:00,
2013-04-15 08:49:00,58.3,47.0,30.17,East,96,4.0,6.0,66,0.00,,,0.00,308,Wunderground v.1.15,2013-04-15 12:49:00,
2013-04-15 09:00:00,58.2,46.5,30.17,SE,137,5.0,5.0,65,0.00,,,0.00,193,Wunderground v.1.15,2013-04-15 13:00:00,
2013-04-15 09:10:00,58.1,46.4,30.17,SSE,167,4.0,4.0,65,0.00,,,0.00,190,Wunderground v.1.15,2013-04-15 13:10:00,
2013-04-15 09:19:00,58.1,46.8,30.17,SE,128,4.0,6.0,66,0.00,,,0.00,221,Wunderground v.1.15,2013-04-15 13:19:00,
2013-04-15 09:30:00,58.2,46.9,30.17,ESE,120,5.0,5.0,66,0.00,,,0.00,220,Wunderground v.1.15,2013-04-15 13:30:00,
2013-04-15 09:40:00,58.4,48.3,30.17,ESE,114,3.0,4.0,69,0.00,,,0.00,260,Wunderground v.1.15,2013-04-15 13:40:00,
2013-04-15 09:50:00,58.4,48.3,30.18,SE,140,3.0,3.0,69,0.00,,,0.00,308,Wunderground v.1.15,2013-04-15 13:50:00,
2013-04-15 10:00:00,58.5,49.1,30.18,SE,135,3.0,3.0,71,0.00,,,0.00,294,Wunderground v.1.15,2013-04-15 14:00:00,
2013-04-15 10:10:00,58.9,49.1,30.18,ESE,117,3.0,5.0,70,0.00,,,0.00,299,Wunderground v.1.15,2013-04-15 14:10:00,
2013-04-15 10:20:00,58.4,48.7,30.18,ESE,120,4.0,4.0,70,0.00,,,0.00,264,Wunderground v.1.15,2013-04-15 14:20:00,
2013-04-15 10:29:00,57.9,48.6,30.19,ESE,110,4.0,4.0,71,0.00,,,0.00,251,Wunderground v.1.15,2013-04-15 14:29:00,
2013-04-15 10:40:00,58.3,49.3,30.18,ESE,118,2.0,3.0,72,0.00,,,0.00,279,Wunderground v.1.15,2013-04-15 14:40:00,
2013-04-15 10:49:00,58.3,49.7,30.18,ESE,115,4.0,4.0,73,0.00,,,0.00,258,Wunderground v.1.15,2013-04-15 14:49:00,
2013-04-15 10:59:00,58.7,50.1,30.18,SE,134,3.0,3.0,73,0.00,,,0.00,234,Wunderground v.1.15,2013-04-15 14:59:00,
2013-04-15 11:10:00,59.0,50.4,30.19,SSE,155,3.0,3.0,73,0.00,,,0.00,269,Wunderground v.1.15,2013-04-15 15:10:00,
2013-04-15 11:20:00,59.7,51.0,30.18,SE,125,4.0,6.0,73,0.00,,,0.00,425,Wunderground v.1.15,2013-04-15 15:20:00,
2013-04-15 11:30:00,60.9,52.2,30.18,ESE,103,4.0,4.0,73,0.00,,,0.00,563,Wunderground v.1.15,2013-04-15 15:30:00,
2013-04-15 11:40:00,60.9,51.4,30.18,SSE,155,4.0,4.0,71,0.00,,,0.00,399,Wunderground v.1.15,2013-04-15 15:40:00,
2013-04-15 11:49:00,60.8,51.3,30.18,East,97,3.0,3.0,71,0.00,,,0.00,543,Wunderground v.1.15,2013-04-15 15:49:00,
2013-04-15 12:00:00,61.2,51.7,30.18,ESE,103,4.0,5.0,71,0.00,,,0.00,475,Wunderground v.1.15,2013-04-15 16:00:00,
2013-04-15 12:10:00,61.4,52.3,30.18,ESE,122,3.0,6.0,72,0.00,,,0.00,441,Wunderground v.1.15,2013-04-15 16:10:00,
2013-04-15 12:20:00,62.0,52.1,30.18,ESE,107,4.0,7.0,70,0.00,,,0.00,455,Wunderground v.1.15,2013-04-15 16:20:00,
2013-04-15 12:29:00,62.2,52.7,30.18,ESE,111,5.0,5.0,71,0.00,,,0.00,531,Wunderground v.1.15,2013-04-15 16:29:00,
2013-04-15 12:39:00,64.0,53.2,30.17,SSW,211,2.0,2.0,68,0.00,,,0.00,664,Wunderground v.1.15,2013-04-15 16:39:00,
2013-04-15 12:49:00,63.9,52.7,30.17,SE,138,3.0,11.0,67,0.00,,,0.00,339,Wunderground v.1.15,2013-04-15 16:49:00,
2013-04-15 13:00:00,63.3,51.7,30.18,SE,136,4.0,11.0,66,0.00,,,0.00,327,Wunderground v.1.15,2013-04-15 17:00:00,
2013-04-15 13:10:00,63.3,51.7,30.18,SSE,164,4.0,4.0,66,0.00,,,0.00,334,Wunderground v.1.15,2013-04-15 17:10:00,
2013-04-15 13:20:00,63.6,52.0,30.18,SSE,150,2.0,4.0,66,0.00,,,0.00,295,Wunderground v.1.15,2013-04-15 17:20:00,
2013-04-15 13:29:00,63.1,52.0,30.18,SSE,155,3.0,3.0,67,0.00,,,0.00,343,Wunderground v.1.15,2013-04-15 17:29:00,
2013-04-15 13:39:00,63.7,52.1,30.17,SSE,147,3.0,3.0,66,0.00,,,0.00,501,Wunderground v.1.15,2013-04-15 17:39:00,
2013-04-15 13:50:00,64.2,52.6,30.17,SE,132,3.0,5.0,66,0.00,,,0.00,404,Wunderground v.1.15,2013-04-15 17:50:00,
2013-04-15 14:19:00,63.6,53.2,30.18,SE,139,3.0,3.0,69,0.00,,,0.00,311,Wunderground v.1.15,2013-04-15 18:19:00,
2013-04-15 14:29:00,63.4,53.0,30.17,SE,141,3.0,3.0,69,0.00,,,0.00,276,Wunderground v.1.15,2013-04-15 18:29:00,
2013-04-15 14:40:00,63.3,52.6,30.17,East,86,4.0,5.0,68,0.00,,,0.00,269,Wunderground v.1.15,2013-04-15 18:40:00,
2013-04-15 14:49:00,63.6,53.6,30.17,ESE,113,4.0,6.0,70,0.00,,,0.00,315,Wunderground v.1.15,2013-04-15 18:49:00,
2013-04-15 15:00:00,63.8,53.0,30.17,East,92,5.0,9.0,68,0.00,,,0.00,257,Wunderground v.1.15,2013-04-15 19:00:00,
2013-04-15 15:09:00,63.7,52.9,30.17,SE,134,6.0,9.0,68,0.00,,,0.00,276,Wunderground v.1.15,2013-04-15 19:09:00,
2013-04-15 15:20:00,63.7,52.9,30.17,SE,138,6.0,6.0,68,0.00,,,0.00,348,Wunderground v.1.15,2013-04-15 19:20:00,
2013-04-15 15:29:00,64.1,53.3,30.16,SE,136,5.0,5.0,68,0.00,,,0.00,269,Wunderground v.1.15,2013-04-15 19:29:00,
2013-04-15 15:50:00,64.1,53.7,30.15,SE,139,6.0,6.0,69,0.00,,,0.00,320,Wunderground v.1.15,2013-04-15 19:50:00,
2013-04-15 15:59:00,64.1,53.3,30.15,ESE,109,6.0,7.0,68,0.00,,,0.00,287,Wunderground v.1.15,2013-04-15 19:59:00,
2013-04-15 16:09:00,64.1,52.5,30.15,SE,132,6.0,6.0,66,0.00,,,0.00,144,Wunderground v.1.15,2013-04-15 20:09:00,
2013-04-15 16:20:00,63.7,52.1,30.15,ESE,117,5.0,8.0,66,0.00,,,0.00,248,Wunderground v.1.15,2013-04-15 20:20:00,
2013-04-15 16:30:00,63.6,52.0,30.16,ESE,112,7.0,7.0,66,0.00,,,0.00,167,Wunderground v.1.15,2013-04-15 20:30:00,
2013-04-15 16:39:00,63.1,51.6,30.15,SSE,150,5.0,5.0,66,0.00,,,0.00,149,Wunderground v.1.15,2013-04-15 20:39:00,
2013-04-15 16:50:00,63.1,51.6,30.15,ESE,121,5.0,5.0,66,0.00,,,0.00,211,Wunderground v.1.15,2013-04-15 20:50:00,
2013-04-15 17:00:00,63.0,50.6,30.16,ESE,117,5.0,8.0,64,0.00,,,0.00,142,Wunderground v.1.15,2013-04-15 21:00:00,
2013-04-15 17:10:00,62.5,49.7,30.17,SE,144,7.0,7.0,63,0.00,,,0.00,116,Wunderground v.1.15,2013-04-15 21:10:00,
2013-04-15 17:19:00,62.4,49.6,30.17,SE,145,6.0,6.0,63,0.00,,,0.00,107,Wunderground v.1.15,2013-04-15 21:19:00,
2013-04-15 17:30:00,62.4,50.1,30.17,SE,132,4.0,4.0,64,0.00,,,0.00,111,Wunderground v.1.15,2013-04-15 21:30:00,
2013-04-15 17:39:00,62.3,50.0,30.17,SE,131,5.0,5.0,64,0.00,,,0.00,95,Wunderground v.1.15,2013-04-15 21:39:00,
2013-04-15 17:49:00,62.0,50.1,30.17,SE,132,5.0,6.0,65,0.00,,,0.00,47,Wunderground v.1.15,2013-04-15 21:49:00,
2013-04-15 18:00:00,61.6,50.1,30.18,SSE,153,5.0,5.0,66,0.00,,,0.00,28,Wunderground v.1.15,2013-04-15 22:00:00,
2013-04-15 18:10:00,61.3,50.2,30.18,SE,126,4.0,4.0,67,0.00,,,0.00,60,Wunderground v.1.15,2013-04-15 22:10:00,
2013-04-15 18:20:00,61.3,50.6,30.18,SSE,163,5.0,5.0,68,0.00,,,0.00,102,Wunderground v.1.15,2013-04-15 22:20:00,
2013-04-15 18:29:00,61.3,51.0,30.18,SE,140,5.0,5.0,69,0.00,,,0.00,91,Wunderground v.1.15,2013-04-15 22:29:00,
2013-04-15 18:39:00,61.0,51.1,30.18,SE,132,5.0,5.0,70,0.00,,,0.00,60,Wunderground v.1.15,2013-04-15 22:39:00,
2013-04-15 18:50:00,60.7,51.2,30.18,SE,130,4.0,4.0,71,0.00,,,0.00,56,Wunderground v.1.15,2013-04-15 22:50:00,
2013-04-15 19:00:00,60.4,51.3,30.18,SE,135,3.0,3.0,72,0.00,,,0.00,42,Wunderground v.1.15,2013-04-15 23:00:00,
2013-04-15 19:10:00,60.1,51.0,30.19,SE,142,4.0,6.0,72,0.00,,,0.00,26,Wunderground v.1.15,2013-04-15 23:10:00,
2013-04-15 19:19:00,59.9,51.2,30.19,ESE,117,3.0,3.0,73,0.00,,,0.00,16,Wunderground v.1.15,2013-04-15 23:19:00,
2013-04-15 19:30:00,59.7,51.0,30.19,ESE,119,3.0,4.0,73,0.00,,,0.00,7,Wunderground v.1.15,2013-04-15 23:30:00,
2013-04-15 19:40:00,59.5,50.8,30.19,SE,128,6.0,6.0,73,0.00,,,0.00,0,Wunderground v.1.15,2013-04-15 23:40:00,
2013-04-15 19:50:00,59.4,50.7,30.20,SE,134,5.0,6.0,73,0.00,,,0.00,0,Wunderground v.1.15,2013-04-15 23:50:00,
2013-04-15 19:59:00,59.1,50.5,30.20,SE,124,3.0,3.0,73,0.00,,,0.00,0,Wunderground v.1.15,2013-04-15 23:59:00,
2013-04-15 20:09:00,59.0,50.7,30.20,ESE,119,3.0,3.0,74,0.00,,,0.00,0,Wunderground v.1.15,2013-04-16 00:09:00,
2013-04-15 20:19:00,59.0,50.7,30.20,ESE,111,2.0,2.0,74,0.00,,,0.00,0,Wunderground v.1.15,2013-04-16 00:19:00,
2013-04-15 20:30:00,59.0,50.7,30.20,ESE,113,3.0,6.0,74,0.00,,,0.00,0,Wunderground v.1.15,2013-04-16 00:30:00,
2013-04-15 20:40:00,59.0,50.7,30.20,ESE,105,2.0,2.0,74,0.00,,,0.00,0,Wunderground v.1.15,2013-04-16 00:40:00,
2013-04-15 20:49:00,59.0,50.7,30.21,SSE,149,2.0,3.0,74,0.00,,,0.00,0,Wunderground v.1.15,2013-04-16 00:49:00,
2013-04-15 21:00:00,59.0,50.7,30.21,SE,134,2.0,3.0,74,0.00,,,0.00,0,Wunderground v.1.15,2013-04-16 01:00:00,
2013-04-15 21:10:00,59.0,50.4,30.21,SSE,150,3.0,3.0,73,0.00,,,0.00,0,Wunderground v.1.15,2013-04-16 01:10:00,
2013-04-15 21:20:00,58.9,50.6,30.22,SE,140,2.0,2.0,74,0.00,,,0.00,0,Wunderground v.1.15,2013-04-16 01:20:00,
2013-04-15 21:29:00,58.8,50.2,30.22,ESE,121,4.0,6.0,73,0.00,,,0.00,0,Wunderground v.1.15,2013-04-16 01:29:00,
2013-04-15 21:40:00,58.7,50.1,30.22,SE,146,4.0,4.0,73,0.00,,,0.00,0,Wunderground v.1.15,2013-04-16 01:40:00,
2013-04-15 21:50:00,58.6,50.3,30.23,SSE,152,3.0,3.0,74,0.00,,,0.00,0,Wunderground v.1.15,2013-04-16 01:50:00,
2013-04-15 22:00:00,58.6,50.3,30.22,SE,144,2.0,3.0,74,0.00,,,0.00,0,Wunderground v.1.15,2013-04-16 02:00:00,
2013-04-15 22:10:00,58.4,50.5,30.22,SSE,167,1.0,3.0,75,0.00,,,0.00,0,Wunderground v.1.15,2013-04-16 02:10:00,
2013-04-15 22:19:00,58.2,50.7,30.23,SSE,155,0.0,1.0,76,0.00,,,0.00,0,Wunderground v.1.15,2013-04-16 02:19:00,
2013-04-15 22:30:00,58.1,50.6,30.23,SSE,155,2.0,2.0,76,0.00,,,0.00,0,Wunderground v.1.15,2013-04-16 02:30:00,
2013-04-15 22:40:00,58.0,50.8,30.23,SSW,198,2.0,3.0,77,0.00,,,0.00,0,Wunderground v.1.15,2013-04-16 02:40:00,
2013-04-15 22:50:00,57.9,50.7,30.23,SSE,161,1.0,1.0,77,0.00,,,0.00,0,Wunderground v.1.15,2013-04-16 02:50:00,
2013-04-15 22:59:00,57.8,50.6,30.23,SSE,153,1.0,1.0,77,0.00,,,0.00,0,Wunderground v.1.15,2013-04-16 02:59:00,
2013-04-15 23:09:00,57.7,50.9,30.23,SE,144,1.0,1.0,78,0.00,,,0.00,0,Wunderground v.1.15,2013-04-16 03:09:00,
2013-04-15 23:20:00,57.6,50.8,30.23,South,180,0.0,0.0,78,0.00,,,0.00,0,Wunderground v.1.15,2013-04-16 03:20:00,
2013-04-15 23:30:00,57.6,50.4,30.23,SSE,153,0.0,0.0,77,0.00,,,0.00,0,Wunderground v.1.15,2013-04-16 03:30:00,
2013-04-15 23:39:00,57.7,50.2,30.23,SSE,160,0.0,0.0,76,0.00,,,0.00,0,Wunderground v.1.15,2013-04-16 03:39:00,
2013-04-15 23:50:00,57.8,49.9,30.23,SE,146,0.0,4.0,75,0.00,,,0.00,0,Wunderground v.1.15,2013-04-16 03:50:00,